User: anonymous   Login
Location: Zilina
(0.0000°N, 18.7333°E)
Time: 00:23:09
(UTC+02:00)
Language:

ARIANE 5 R/B - Orbit

View from above orbital plane
View from above orbital plane
View from above satellite
View from above satellite

Ground track
Ground track

The orbit data is extracted from the following two-line orbital elements,

1 37777U 11041C   19294.66788863 +.00000170 +00000-0 +17118-3 0  9994
2 37777 001.8433 287.7316 7163532 224.5059 048.2186 02.41645201070809
Epoch (UTC): 21 October 2019 16:01:45
Eccentricity: 0.7163532
inclination: 1.8433°
perigee height: 275 km
apogee height: 33883 km
right ascension of ascending node: 287.7316°
argument of perigee: 224.5059°
revolutions per day: 2.41645201
mean anomaly at epoch: 48.2186°
orbit number at epoch: 7080

The dashed part of the orbit path shows where the satellite is in the earth's shadow,  

DLR